Worcester, MA

12:47 AM EDT on October 19, 2017 (GMT -0400)
Worcester Regional

Weather History for KORH - April, 2015

Change the Weather History Date:

Friday, April 24, 2015

  Actual Average Record
Temperature  
Mean Temperature 39 °F 49 °F  
Max Temperature 44 °F 59 °F 84 °F (2001)
Min Temperature 33 °F 40 °F 21 °F (1930)
Degree Days  
Heating Degree Days 26 16  
Month to date heating degree days 461 484  
Since 1 July heating degree days 6661 6260  
Cooling Degree Days 0 0  
Month to date cooling degree days 0 0  
Year to date cooling degree days 0 0  
Moisture  
Dew Point 21 °F    
Average Humidity 54    
Maximum Humidity 69    
Minimum Humidity 39    
Precipitation  
Precipitation 0.00 in 0.12 in 2.01 in (1983)
Month to date precipitation 2.87 3.33  
Year to date precipitation 13.60 14.26  
Sea Level Pressure  
Sea Level Pressure 29.75 in    
Wind  
Wind Speed 17 mph (WNW)    
Max Wind Speed 25 mph    
Max Gust Speed 33 mph    
Visibility 10 miles    
Events      
T = Trace of Precipitation, MM = Missing Value Source: NWS Daily Summary

Daily Weather History Graph

Daily Weather History Graph

Search for Another Location

Airport or City:

Trip Planner

Search our weather history database for the weather conditions in past years. The results will help you decide how hot, cold, wet, or windy it might be!

Date:

Astronomy

Apr. 24, 2015 Rise Set
Actual Time 5:53 AM EDT 7:38 PM EDT
Civil Twilight 5:23 AM EDT 8:08 PM EDT
Nautical Twilight 4:47 AM EDT 8:45 PM EDT
Astronomical Twilight 4:08 AM EDT 9:24 PM EDT
Moon 10:51 AM EDT (4/24) 12:41 AM EDT (4/24)
Length of Visible Light 14h 45m
Length of Day
13h 45m
Waxing Crescent, 37% of the Moon is Illuminated
Apr 24
Waxing Crescent
Apr 25
First Quarter
May 3
Full
May 11
Last Quarter
May 18
New

Hourly Weather History & Observations

Time (EDT) Temp. Windchill Dew Point Humidity Pressure Visibility Wind Dir Wind Speed Gust Speed Precip Events Conditions
12:54 AM 34.0 °F 23.8 °F 24.1 °F 67% 29.70 in 10.0 mi West 16.1 mph 23.0 mph N/A   Scattered Clouds
1:54 AM 33.1 °F 22.6 °F 24.1 °F 70% 29.70 in 10.0 mi West 16.1 mph 24.2 mph N/A   Clear
2:54 AM 33.1 °F 21.5 °F 24.1 °F 70% 29.70 in 10.0 mi West 19.6 mph 27.6 mph N/A   Clear
3:54 AM 33.1 °F 21.2 °F 23.0 °F 66% 29.70 in 10.0 mi West 20.7 mph 29.9 mph N/A   Partly Cloudy
4:54 AM 34.0 °F 22.7 °F 21.9 °F 61% 29.71 in 10.0 mi WNW 19.6 mph 31.1 mph N/A   Overcast
5:54 AM 33.1 °F 21.9 °F 21.9 °F 64% 29.73 in 10.0 mi WNW 18.4 mph 29.9 mph N/A   Overcast
6:54 AM 33.1 °F 23.0 °F 21.0 °F 61% 29.74 in 10.0 mi WNW 15.0 mph 28.8 mph N/A   Overcast
7:54 AM 34.0 °F 23.4 °F 21.0 °F 59% 29.75 in 10.0 mi WNW 17.3 mph 33.4 mph N/A   Overcast
8:54 AM 35.1 °F 23.8 °F 21.0 °F 57% 29.76 in 10.0 mi WNW 20.7 mph 29.9 mph N/A   Overcast
9:54 AM 37.9 °F 27.6 °F 21.0 °F 51% 29.75 in 10.0 mi NW 20.7 mph 31.1 mph N/A   Overcast
10:54 AM 41.0 °F 32.5 °F 21.0 °F 45% 29.75 in 10.0 mi NW 17.3 mph 26.5 mph N/A   Overcast
11:54 AM 39.9 °F 30.8 °F 19.9 °F 45% 29.75 in 10.0 mi NNW 18.4 mph 26.5 mph N/A   Overcast
12:54 PM 41.0 °F 30.9 °F 21.0 °F 45% 29.75 in 10.0 mi WNW 24.2 mph 31.1 mph N/A   Overcast
1:54 PM 41.0 °F 32.2 °F 21.0 °F 45% 29.75 in 10.0 mi NW 18.4 mph 25.3 mph N/A   Overcast
2:54 PM 42.8 °F 34.3 °F 21.2 °F 42% 29.71 in 10.0 mi West 19.6 mph 24.2 mph N/A   Overcast
3:54 PM 43.0 °F 36.0 °F 19.0 °F 38% 29.73 in 10.0 mi NW 13.8 mph 21.9 mph N/A   Mostly Cloudy
4:54 PM 42.1 °F 34.5 °F 19.9 °F 41% 29.75 in 10.0 mi WNW 15.0 mph 23.0 mph N/A   Overcast
5:54 PM 39.9 °F 30.5 °F 19.9 °F 45% 29.77 in 10.0 mi WNW 19.6 mph 25.3 mph N/A   Overcast
6:54 PM 39.0 °F 31.8 °F 21.0 °F 49% 29.79 in 10.0 mi WNW 11.5 mph - N/A   Overcast
7:54 PM 37.9 °F 29.2 °F 19.9 °F 48% 29.81 in 10.0 mi WNW 15.0 mph 25.3 mph N/A   Overcast
8:54 PM 37.0 °F 29.3 °F 21.0 °F 52% 29.82 in 10.0 mi West 11.5 mph 23.0 mph N/A   Overcast
9:54 PM 36.0 °F 28.0 °F 21.0 °F 55% 29.83 in 10.0 mi WNW 11.5 mph 20.7 mph N/A   Overcast
10:54 PM 36.0 °F 27.5 °F 19.9 °F 52% 29.82 in 10.0 mi WNW 12.7 mph 24.2 mph N/A   Overcast
11:54 PM 35.1 °F 26.4 °F 19.0 °F 52% 29.81 in 10.0 mi WNW 12.7 mph - N/A   Mostly Cloudy